Flag for Germany Weather past 2 weeks in Viernheim, Hesse, Germany

Now
45 °F

Fog.


Feels Like: 45 °F
Forecast: 38 / 63 °F
Wind: 2 mph from North

Location: Baden Wurttemberg - Neuostheim

Current Time: Sep 23, 2014 at 10:46:37 AM

Latest Report: Sep 23, 2014 at 9:50 AM


Visibility: 0 mi

Pressure: 30.21 "Hg

Humidity: 100%

Dew point: 45 °F

Location of ViernheimLocation

Historic Weather in Viernheim — Graph

°F

Viernheim temperature yesterday

Maximum temperature yesterday: 59 °F (at 12:50 PM)
Minimum temperature yesterday: 48 °F (at 6:50 AM)
Average temperature yesterday: 54 °F

Past Weeks' High & Low Weather Summary

 TemperatureHumidityPressure
High79 °F (Sep 17, 3:20 PM)100% (Sep 15, 4:20 AM)30.21 "Hg (Sep 15, 4:20 AM)
Low41 °F (Sep 23, 6:20 AM)39% (Sep 17, 4:20 PM)29.86 "Hg (Sep 17, 3:20 PM)
Average64 °F75%30.01 "Hg
* Reported Sep 8 9:20 AM — Sep 23 9:50 AM, Viernheim, Weather by CustomWeather, © 2014

Note: Actual official high and low records may vary slightly from our data, if they occured in-between our weather recording intervals... More about our weather records

Advertising

Viernheim weather history for previous 24 hours

 ConditionsComfort  
Time TempWeatherWind HumidityBarometerVisibility
9:50 AM
Sep 23
45 °FFog.2 mph100%30.21 "Hg1 mi
9:20 AM45 °FFog.3 mph100%30.21 "Hg1 mi
8:50 AM43 °FFog.1 mph100%30.21 "Hg1 mi
8:20 AM43 °FFog.5 mph100%30.21 "Hg1 mi
7:50 AM43 °FFog.3 mph100%30.21 "Hg1 mi
7:20 AM43 °FQuite cool.3 mph100%30.21 "Hg1 mi
6:50 AM43 °FFog.3 mph100%30.18 "Hg1 mi
6:20 AM41 °FFog.1 mph100%30.18 "Hg4 mi
5:50 AM43 °FClear.1 mph93%30.18 "Hg4 mi
9:20 PM
Sep 22
48 °FPassing clouds.3 mph87%30.15 "HgN/A
8:50 PM50 °FClear.2 mph82%30.15 "Hg10 mi
8:20 PM52 °FSunny.2 mph72%30.15 "Hg10 mi
7:50 PM54 °FPassing clouds.6 mph67%30.15 "HgN/A
7:20 PM54 °FPassing clouds.7 mph67%30.15 "HgN/A
6:50 PM55 °FPassing clouds.8 mph63%30.12 "HgN/A
6:20 PM55 °FPassing clouds.7 mph67%30.12 "HgN/A
5:50 PM54 °FPassing clouds.7 mph77%30.09 "HgN/A
5:20 PM55 °FBroken clouds.7 mph77%30.09 "HgN/A
4:50 PM52 °FScattered clouds.8 mph82%30.09 "HgN/A
4:20 PM52 °FBroken clouds.8 mph88%30.09 "HgN/A
3:50 PM59 °FThunderstorms. Partly sunny.15 mph59%30.07 "HgN/A
3:20 PM59 °FDrizzle. Broken clouds.7 mph68%30.04 "HgN/A
2:50 PM59 °FPartly sunny.8 mph68%30.07 "HgN/A
2:20 PM57 °FScattered clouds.9 mph72%30.07 "HgN/A
1:50 PM57 °FMixture of precip. Broken clouds.10 mph67%30.07 "HgN/A
1:20 PM59 °FBroken clouds.12 mph63%30.07 "HgN/A
12:50 PM59 °FBroken clouds.10 mph59%30.09 "HgN/A
12:20 PM57 °FPartly sunny.12 mph63%30.09 "HgN/A
11:50 AM57 °FPartly sunny.10 mph67%30.12 "HgN/A
11:20 AM55 °FPartly sunny.12 mph72%30.12 "HgN/A
10:50 AM57 °FPartly sunny.9 mph72%30.12 "HgN/A
10:20 AM55 °FPartly sunny.12 mph77%30.12 "HgN/A
Weather by CustomWeather, © 2014

See weather overviewHow to use our weather pages